LAN789 SAEZ-SULS

Flight info

Callsign LAN789
Flight time 0h 31m
Altitude 23000
Route DORVO1A DORVO DCT
Aircraft B77W/H-SDE1E2E3FGHIJ2J3J4J5M1RWXY/LB1D1

Departure

Time 2026-04-24 21:16
Airport Ezeiza International Airport - Ministro Pistarini (SAEZ)

Arrival

Time 2026-04-24 21:47
Airport Capitan Corbeta CA Curbelo International Airport (SULS)
Time Latitude Longitude Altitude Speed Heading
2026-04-24 20:39 -34.81643 -58.54367 66 ft 0 kts 336°
2026-04-24 21:06 -34.81646 -58.54365 75 ft 0 kts 336°
2026-04-24 21:07 -34.81647 -58.54365 75 ft 1 kts 336°
2026-04-24 21:07 -34.81652 -58.54362 65 ft 0 kts 336°
2026-04-24 21:07 -34.81661 -58.54357 62 ft 3 kts 336°
2026-04-24 21:07 -34.81670 -58.54352 68 ft 1 kts 336°
2026-04-24 21:08 -34.81681 -58.54347 64 ft 2 kts 323°
2026-04-24 21:08 -34.81687 -58.54337 75 ft 0 kts 259°
2026-04-24 21:10 -34.81696 -58.54394 67 ft 20 kts 258°
2026-04-24 21:10 -34.81760 -58.54589 67 ft 35 kts 252°
2026-04-24 21:10 -34.81757 -58.54927 70 ft 22 kts 284°
2026-04-24 21:10 -34.81753 -58.54945 63 ft 0 kts 285°
2026-04-24 21:11 -34.81752 -58.54949 61 ft 0 kts 285°
2026-04-24 21:12 -34.81752 -58.54950 61 ft 1 kts 285°
2026-04-24 21:12 -34.81746 -58.54977 42 ft 9 kts 285°
2026-04-24 21:12 -34.81714 -58.55116 70 ft 25 kts 285°
2026-04-24 21:12 -34.81710 -58.55297 65 ft 15 kts 238°
2026-04-24 21:13 -34.81735 -58.55326 69 ft 0 kts 213°
2026-04-24 21:15 -34.81736 -58.55326 66 ft 1 kts 213°
2026-04-24 21:15 -34.81818 -58.55329 69 ft 30 kts 163°
2026-04-24 21:15 -34.81931 -58.55198 70 ft 28 kts 103°
2026-04-24 21:15 -34.81936 -58.55172 66 ft 4 kts 100°
2026-04-24 21:16 -34.81985 -58.54885 68 ft 88 kts 102°
2026-04-24 21:16 -34.82213 -58.53639 105 ft 213 kts 102°
2026-04-24 21:16 -34.82606 -58.51653 1212 ft 253 kts 102°
2026-04-24 21:16 -34.83112 -58.49651 3451 ft 244 kts 114°
2026-04-24 21:17 -34.84166 -58.48048 4740 ft 244 kts 135°
2026-04-24 21:17 -34.85416 -58.46507 5401 ft 269 kts 133°
2026-04-24 21:17 -34.86621 -58.44698 6229 ft 281 kts 122°
2026-04-24 21:17 -34.87643 -58.42629 7291 ft 288 kts 119°
2026-04-24 21:18 -34.88641 -58.40483 8412 ft 294 kts 120°
2026-04-24 21:18 -34.89455 -58.38238 9384 ft 299 kts 99°
2026-04-24 21:18 -34.89357 -58.35722 10249 ft 300 kts 75°
2026-04-24 21:18 -34.88791 -58.33196 10758 ft 323 kts 73°
2026-04-24 21:19 -34.88140 -58.30426 11008 ft 355 kts 73°
2026-04-24 21:19 -34.87447 -58.27420 11398 ft 379 kts 73°
2026-04-24 21:19 -34.86748 -58.24276 12211 ft 390 kts 74°
2026-04-24 21:19 -34.86053 -58.21054 13153 ft 397 kts 75°
2026-04-24 21:20 -34.84682 -58.14502 14981 ft 408 kts 75°
2026-04-24 21:20 -34.83985 -58.11125 15815 ft 415 kts 75°
2026-04-24 21:20 -34.83277 -58.07689 16635 ft 421 kts 74°
2026-04-24 21:21 -34.82559 -58.04207 17443 ft 428 kts 74°
2026-04-24 21:21 -34.81827 -58.00659 18229 ft 435 kts 73°
2026-04-24 21:21 -34.81084 -57.97068 18893 ft 442 kts 73°
2026-04-24 21:21 -34.80329 -57.93422 19607 ft 447 kts 73°
2026-04-24 21:22 -34.79574 -57.89785 20318 ft 451 kts 74°
2026-04-24 21:22 -34.78801 -57.86066 21020 ft 456 kts 74°
2026-04-24 21:22 -34.78020 -57.82316 21712 ft 460 kts 74°
2026-04-24 21:22 -34.77233 -57.78537 22550 ft 461 kts 73°
2026-04-24 21:23 -34.76441 -57.74746 23091 ft 463 kts 73°
2026-04-24 21:23 -34.75646 -57.70945 23046 ft 464 kts 73°
2026-04-24 21:23 -34.74855 -57.67164 23054 ft 460 kts 73°
2026-04-24 21:23 -34.74064 -57.63395 23038 ft 459 kts 73°
2026-04-24 21:24 -34.73286 -57.59696 23046 ft 459 kts 73°
2026-04-24 21:24 -34.72505 -57.55935 23065 ft 459 kts 75°
2026-04-24 21:24 -34.71965 -57.52101 23055 ft 461 kts 82°
2026-04-24 21:24 -34.71735 -57.48211 23064 ft 462 kts 88°
2026-04-24 21:25 -34.71837 -57.44305 23066 ft 463 kts 93°
2026-04-24 21:25 -34.72030 -57.40408 23064 ft 463 kts 93°
2026-04-24 21:25 -34.72221 -57.36501 23051 ft 463 kts 93°
2026-04-24 21:25 -34.72403 -57.32639 23069 ft 463 kts 92°
2026-04-24 21:26 -34.72580 -57.28732 23070 ft 463 kts 92°
2026-04-24 21:26 -34.72751 -57.24822 23060 ft 463 kts 92°
2026-04-24 21:26 -34.72916 -57.20924 23070 ft 463 kts 92°
2026-04-24 21:26 -34.73079 -57.17014 23064 ft 463 kts 92°
2026-04-24 21:27 -34.73239 -57.13110 23074 ft 462 kts 92°
2026-04-24 21:27 -34.73398 -57.09208 23063 ft 462 kts 92°
2026-04-24 21:27 -34.73555 -57.05309 23070 ft 462 kts 92°
2026-04-24 21:27 -34.73711 -57.01413 23071 ft 461 kts 92°
2026-04-24 21:28 -34.73867 -56.97519 23079 ft 461 kts 92°
2026-04-24 21:28 -34.74044 -56.93695 23064 ft 456 kts 95°
2026-04-24 21:28 -34.74458 -56.89918 23066 ft 446 kts 99°
2026-04-24 21:28 -34.74962 -56.86223 23062 ft 441 kts 99°
2026-04-24 21:29 -34.75482 -56.82550 22911 ft 442 kts 99°
2026-04-24 21:29 -34.76004 -56.78842 22286 ft 445 kts 99°
2026-04-24 21:29 -34.76515 -56.75141 21780 ft 442 kts 99°
2026-04-24 21:29 -34.77011 -56.71472 21279 ft 438 kts 99°
2026-04-24 21:30 -34.77495 -56.67835 20795 ft 434 kts 99°
2026-04-24 21:30 -34.77968 -56.64235 20311 ft 430 kts 99°
2026-04-24 21:30 -34.78435 -56.60660 19833 ft 426 kts 99°
2026-04-24 21:30 -34.78890 -56.57159 19363 ft 423 kts 99°
2026-04-24 21:31 -34.79347 -56.53637 18878 ft 420 kts 99°
2026-04-24 21:31 -34.79800 -56.50137 18407 ft 417 kts 99°
2026-04-24 21:31 -34.80249 -56.46668 18026 ft 410 kts 99°
2026-04-24 21:31 -34.80688 -56.43262 17466 ft 408 kts 99°
2026-04-24 21:32 -34.81127 -56.39851 16889 ft 407 kts 99°
2026-04-24 21:32 -34.81562 -56.36462 16391 ft 403 kts 99°
2026-04-24 21:32 -34.81992 -56.33105 15904 ft 400 kts 99°
2026-04-24 21:32 -34.82416 -56.29793 15592 ft 391 kts 99°
2026-04-24 21:33 -34.82825 -56.26589 15072 ft 389 kts 99°
2026-04-24 21:33 -34.83106 -56.24382 14670 ft 390 kts 99°
2026-04-24 21:33 -34.83653 -56.20077 14018 ft 387 kts 99°
2026-04-24 21:33 -34.84062 -56.16853 13502 ft 384 kts 99°
2026-04-24 21:34 -34.84467 -56.13658 12997 ft 380 kts 98°
2026-04-24 21:34 -34.84866 -56.10495 12515 ft 376 kts 98°
2026-04-24 21:34 -34.85261 -56.07367 12105 ft 370 kts 98°
2026-04-24 21:34 -34.85638 -56.04372 12044 ft 356 kts 98°
2026-04-24 21:35 -34.86006 -56.01442 11742 ft 349 kts 97°
2026-04-24 21:35 -34.86372 -55.98515 11179 ft 351 kts 97°
2026-04-24 21:35 -34.86740 -55.95570 10636 ft 352 kts 97°
2026-04-24 21:35 -34.87108 -55.92615 10094 ft 353 kts 97°
2026-04-24 21:36 -34.87476 -55.89652 9516 ft 354 kts 97°
2026-04-24 21:36 -34.87841 -55.86708 9220 ft 346 kts 97°
2026-04-24 21:36 -34.88196 -55.83846 8895 ft 340 kts 97°
2026-04-24 21:36 -34.88544 -55.81036 8297 ft 330 kts 97°
2026-04-24 21:37 -34.88880 -55.78324 7703 ft 318 kts 97°
2026-04-24 21:37 -34.89202 -55.75706 7163 ft 309 kts 97°
2026-04-24 21:37 -34.89511 -55.73195 6650 ft 298 kts 97°
2026-04-24 21:37 -34.89810 -55.70767 6186 ft 281 kts 97°
2026-04-24 21:38 -34.90095 -55.68450 5597 ft 272 kts 97°
2026-04-24 21:38 -34.90369 -55.66207 5019 ft 264 kts 97°
2026-04-24 21:38 -34.90635 -55.64027 4437 ft 257 kts 97°
2026-04-24 21:38 -34.90895 -55.61902 3866 ft 250 kts 96°
2026-04-24 21:39 -34.91148 -55.59828 3324 ft 244 kts 96°
2026-04-24 21:39 -34.91387 -55.57868 3096 ft 225 kts 95°
2026-04-24 21:39 -34.91604 -55.56096 2992 ft 204 kts 95°
2026-04-24 21:39 -34.91808 -55.54417 2989 ft 197 kts 95°
2026-04-24 21:40 -34.91925 -55.52760 3000 ft 196 kts 83°
2026-04-24 21:40 -34.91769 -55.51111 3011 ft 195 kts 78°
2026-04-24 21:40 -34.91573 -55.49482 3011 ft 195 kts 78°
2026-04-24 21:40 -34.91378 -55.47843 3003 ft 196 kts 78°
2026-04-24 21:41 -34.91188 -55.46200 3014 ft 195 kts 79°
2026-04-24 21:41 -34.91004 -55.44564 2902 ft 196 kts 79°
2026-04-24 21:41 -34.90825 -55.42940 2512 ft 197 kts 79°
2026-04-24 21:41 -34.90645 -55.41282 2063 ft 196 kts 79°
2026-04-24 21:42 -34.90475 -55.39681 1848 ft 181 kts 80°
2026-04-24 21:42 -34.90322 -55.38227 1801 ft 170 kts 79°
2026-04-24 21:42 -34.90170 -55.36788 1817 ft 173 kts 79°
2026-04-24 21:42 -34.90017 -55.35337 1840 ft 171 kts 80°
2026-04-24 21:43 -34.89868 -55.33909 2115 ft 170 kts 79°
2026-04-24 21:43 -34.89718 -55.32476 2661 ft 173 kts 79°
2026-04-24 21:43 -34.89562 -55.30999 3049 ft 179 kts 79°
2026-04-24 21:43 -34.89404 -55.29478 3162 ft 183 kts 79°
2026-04-24 21:44 -34.89244 -55.27939 2937 ft 182 kts 79°
2026-04-24 21:44 -34.89092 -55.26470 2459 ft 174 kts 79°
2026-04-24 21:44 -34.88939 -55.25010 2184 ft 176 kts 79°
2026-04-24 21:44 -34.88786 -55.23540 1989 ft 174 kts 80°
2026-04-24 21:45 -34.88621 -55.22067 1817 ft 175 kts 77°
2026-04-24 21:45 -34.88368 -55.20618 1555 ft 174 kts 72°
2026-04-24 21:45 -34.88014 -55.19242 1311 ft 167 kts 70°
2026-04-24 21:45 -34.87655 -55.17915 1193 ft 166 kts 70°
2026-04-24 21:46 -34.87305 -55.16569 1112 ft 167 kts 72°
2026-04-24 21:46 -34.86964 -55.15202 905 ft 169 kts 73°
2026-04-24 21:46 -34.86650 -55.13914 567 ft 152 kts 75°
2026-04-24 21:46 -34.86336 -55.12687 335 ft 151 kts 76°
2026-04-24 21:47 -34.86054 -55.11529 163 ft 144 kts 76°
2026-04-24 21:47 -34.85861 -55.10741 91 ft 140 kts 75°
2026-04-24 21:47 -34.85623 -55.09832 97 ft 17 kts 72°
2026-04-24 21:47 -34.85597 -55.09736 99 ft 13 kts 72°
2026-04-24 21:48 -34.85546 -55.09535 99 ft 29 kts 74°
2026-04-24 21:48 -34.85562 -55.09416 101 ft 0 kts 158°
2026-04-24 21:48 -34.85590 -55.09409 102 ft 12 kts 172°